| time (UTC) | temp F | wind direction | speed MPH | gust MPH | rain 1hr in | rain 24hr in | rain mn in | humidity % | barometer mb |
| 20260831060516 | 67 | 290 | 0.0 | 0.0 | 0.00 | 0.00 | 0.00 | 80 | 1021.2 |
| 20260831060017 | 67 | 290 | 0.0 | 0.0 | 0.00 | 0.00 | 0.00 | 80 | 1021.2 |
| 20260831055513 | 66 | 290 | 0.0 | 0.0 | 0.00 | 0.00 | 0.00 | 80 | 1021.1 |
| 20260831055017 | 66 | 290 | 0.0 | 0.0 | 0.00 | 0.00 | 0.00 | 80 | 1021.1 |
| 20260831054516 | 66 | 290 | 0.0 | 0.0 | 0.00 | 0.00 | 0.00 | 80 | 1021.0 |
| 20260831054031 | 66 | 290 | 0.0 | 1.0 | 0.00 | 0.00 | 0.00 | 80 | 1021.1 |
| 20260831053515 | 66 | 290 | 0.0 | 1.0 | 0.00 | 0.00 | 0.00 | 80 | 1021.1 |
| 20260831053016 | 66 | 290 | 0.0 | 1.0 | 0.00 | 0.00 | 0.00 | 80 | 1021.0 |
| 20260831052523 | 66 | 290 | 0.0 | 1.0 | 0.00 | 0.00 | 0.00 | 80 | 1020.9 |
| 20260831052016 | 66 | 290 | 0.0 | 1.0 | 0.00 | 0.00 | 0.00 | 80 | 1020.9 |
| 20260831051828 | 66 | 290 | 0.0 | 1.0 | 0.00 | 0.00 | 0.00 | 79 | 1020.9 |
| 20260831051015 | 66 | 292 | 0.0 | 0.0 | 0.00 | 0.00 | 0.00 | 79 | 1020.9 |
| 20260831050515 | 66 | 292 | 0.0 | 0.0 | 0.00 | 0.00 | 0.00 | 79 | 1020.9 |
| 20260831050111 | 67 | 292 | 0.0 | 0.0 | 0.00 | 0.00 | 0.00 | 79 | 1020.8 |
| 20260831045018 | 67 | 292 | 0.0 | 0.0 | 0.00 | 0.00 | 0.00 | 79 | 1020.8 |
| 20260831044515 | 67 | 292 | 0.0 | 3.0 | 0.00 | 0.00 | 0.00 | 79 | 1020.7 |
| 20260831044017 | 67 | 290 | 0.0 | 3.0 | 0.00 | 0.00 | 0.00 | 79 | 1020.7 |
| 20260831043514 | 67 | 293 | 0.0 | 1.0 | 0.00 | 0.00 | 0.00 | 79 | 1020.8 |
| 20260831043014 | 67 | 251 | 0.0 | 2.0 | 0.00 | 0.00 | 0.00 | 78 | 1020.9 |
| 20260831042513 | 67 | 285 | 0.0 | 2.0 | 0.00 | 0.00 | 0.00 | 78 | 1020.8 |
| 20260831042240 | 67 | 283 | 0.0 | 3.0 | 0.00 | 0.00 | 0.00 | 78 | 1020.8 |
| 20260831042234 | 67 | 283 | 0.0 | 3.0 | 0.00 | 0.00 | 0.00 | 77 | 1020.7 |
| 20260831042148 | 67 | 276 | 0.0 | 2.0 | 0.00 | 0.00 | 0.00 | 78 | 1020.7 |
| 20260831040821 | 67 | 286 | 0.0 | 2.0 | 0.00 | 0.00 | 0.00 | 77 | 1020.8 |
| 20260831040013 | 67 | 310 | 0.0 | 4.0 | 0.00 | 0.00 | 0.00 | 77 | 1020.8 |
| 20260831035823 | 67 | 282 | 0.0 | 4.0 | 0.00 | 0.00 | 0.00 | 77 | 1020.9 |
| 20260831035013 | 67 | 302 | 0.0 | 3.0 | 0.00 | 0.00 | 0.00 | 77 | 1020.9 |
| 20260831034512 | 67 | 278 | 1.0 | 3.0 | 0.00 | 0.00 | 0.00 | 77 | 1020.9 |
| 20260831034013 | 67 | 302 | 0.0 | 3.0 | 0.00 | 0.00 | 0.00 | 77 | 1021.0 |
| 20260831033513 | 67 | 303 | 1.0 | 3.0 | 0.00 | 0.00 | 0.00 | 77 | 1021.0 |
| 20260831033150 | 68 | 292 | 1.0 | 4.0 | 0.00 | 0.00 | 0.00 | 78 | 1021.0 |
| 20260831033116 | 67 | 296 | 0.0 | 4.0 | 0.00 | 0.00 | 0.00 | 78 | 1020.9 |
| 20260831032012 | 68 | 309 | 1.0 | 2.0 | 0.00 | 0.00 | 0.00 | 78 | 1020.9 |
| 20260831031513 | 68 | 307 | 0.0 | 3.0 | 0.00 | 0.00 | 0.00 | 78 | 1021.0 |
| 20260831031324 | 68 | 298 | 0.0 | 3.0 | 0.00 | 0.00 | 0.00 | 79 | 1021.0 |
| 20260831030522 | 68 | 285 | 0.0 | 2.0 | 0.00 | 0.00 | 0.00 | 78 | 1020.9 |
| 20260831030011 | 68 | 295 | 0.0 | 3.0 | 0.00 | 0.00 | 0.00 | 78 | 1021.0 |
| 20260831025819 | 68 | 289 | 0.0 | 3.0 | 0.00 | 0.00 | 0.00 | 79 | 1021.0 |
| 20260831025013 | 68 | 285 | 0.0 | 2.0 | 0.00 | 0.00 | 0.00 | 79 | 1021.0 |
| 20260831024828 | 68 | 286 | 0.0 | 1.0 | 0.00 | 0.00 | 0.00 | 78 | 1021.0 |
| 20260831024139 | 68 | 303 | 0.0 | 1.0 | 0.00 | 0.00 | 0.00 | 78 | 1020.9 |
| 20260831024109 | 68 | 302 | 0.0 | 1.0 | 0.00 | 0.00 | 0.00 | 78 | 1021.0 |
| 20260831023011 | 68 | 282 | 0.0 | 1.0 | 0.00 | 0.00 | 0.00 | 79 | 1021.0 |
| 20260831022512 | 68 | 282 | 0.0 | 1.0 | 0.00 | 0.00 | 0.00 | 79 | 1020.9 |
| 20260831022011 | 68 | 282 | 0.0 | 1.0 | 0.00 | 0.00 | 0.00 | 79 | 1020.9 |
| 20260831021512 | 68 | 305 | 0.0 | 2.0 | 0.00 | 0.00 | 0.00 | 79 | 1020.9 |
| 20260831021012 | 68 | 310 | 0.0 | 2.0 | 0.00 | 0.00 | 0.00 | 79 | 1020.9 |
| 20260831020512 | 68 | 296 | 0.0 | 4.0 | 0.00 | 0.00 | 0.00 | 78 | 1020.9 |
| 20260831020010 | 68 | 286 | 1.0 | 4.0 | 0.00 | 0.00 | 0.00 | 78 | 1020.9 |
| 20260831015512 | 68 | 295 | 0.0 | 2.0 | 0.00 | 0.00 | 0.00 | 78 | 1020.9 |
| 20260831015010 | 69 | 309 | 0.0 | 3.0 | 0.00 | 0.00 | 0.00 | 78 | 1020.8 |
| 20260831014514 | 69 | 289 | 0.0 | 3.0 | 0.00 | 0.00 | 0.00 | 78 | 1020.8 |
| 20260831014011 | 69 | 292 | 1.0 | 4.0 | 0.00 | 0.00 | 0.00 | 78 | 1020.8 |
| 20260831013508 | 69 | 282 | 1.0 | 4.0 | 0.00 | 0.00 | 0.00 | 77 | 1020.9 |
| 20260831013013 | 69 | 295 | 2.0 | 3.0 | 0.00 | 0.00 | 0.00 | 78 | 1020.9 |
| 20260831012510 | 69 | 299 | 1.0 | 4.0 | 0.00 | 0.00 | 0.00 | 79 | 1020.9 |
| 20260831012320 | 69 | 296 | 1.0 | 4.0 | 0.00 | 0.00 | 0.00 | 79 | 1020.9 |
| 20260831011509 | 69 | 283 | 1.0 | 4.0 | 0.00 | 0.00 | 0.00 | 79 | 1020.9 |
| 20260831011010 | 69 | 278 | 0.0 | 1.0 | 0.00 | 0.00 | 0.00 | 79 | 1020.8 |
| 20260831010512 | 69 | 278 | 0.0 | 2.0 | 0.00 | 0.00 | 0.00 | 79 | 1020.8 |
| 20260831010011 | 69 | 278 | 0.0 | 2.0 | 0.00 | 0.00 | 0.00 | 79 | 1020.8 |
| 20260831005509 | 69 | 276 | 0.0 | 0.0 | 0.00 | 0.00 | 0.00 | 79 | 1020.8 |
| 20260831005010 | 69 | 276 | 0.0 | 0.0 | 0.00 | 0.00 | 0.00 | 79 | 1020.7 |
| 20260831004510 | 69 | 279 | 0.0 | 0.0 | 0.00 | 0.00 | 0.00 | 79 | 1020.6 |
| 20260831004009 | 69 | 279 | 0.0 | 1.0 | 0.00 | 0.00 | 0.00 | 79 | 1020.7 |
| 20260831003512 | 69 | 279 | 0.0 | 2.0 | 0.00 | 0.00 | 0.00 | 79 | 1020.7 |
| 20260831003009 | 69 | 272 | 0.0 | 2.0 | 0.00 | 0.00 | 0.00 | 78 | 1020.6 |
| 20260831002508 | 69 | 271 | 0.0 | 5.0 | 0.00 | 0.00 | 0.00 | 78 | 1020.6 |
| 20260831002009 | 69 | 292 | 2.0 | 5.0 | 0.00 | 0.00 | 0.00 | 78 | 1020.6 |
| 20260831001509 | 69 | 282 | 0.0 | 4.0 | 0.00 | 0.00 | 0.00 | 78 | 1020.6 |
| 20260831001010 | 69 | 276 | 0.0 | 4.0 | 0.00 | 0.00 | 0.00 | 78 | 1020.6 |
| 20260831000507 | 69 | 274 | 0.0 | 2.0 | 0.00 | 0.00 | 0.00 | 79 | 1020.7 |
| 20260831000012 | 69 | 272 | 1.0 | 3.0 | 0.00 | 0.00 | 0.00 | 79 | 1020.6 |
| 20260830235507 | 70 | 271 | 0.0 | 5.0 | 0.00 | 0.00 | 0.00 | 79 | 1020.7 |
| 20260830235322 | 70 | 310 | 0.0 | 5.0 | 0.00 | 0.00 | 0.00 | 79 | 1020.7 |
| 20260830234507 | 70 | 289 | 1.0 | 4.0 | 0.00 | 0.00 | 0.00 | 79 | 1020.7 |
| 20260830234009 | 70 | 314 | 1.0 | 2.0 | 0.00 | 0.00 | 0.00 | 80 | 1020.7 |
| 20260830233817 | 70 | 268 | 0.0 | 2.0 | 0.00 | 0.00 | 0.00 | 79 | 1020.7 |
| 20260830233318 | 70 | 274 | 1.0 | 2.0 | 0.00 | 0.00 | 0.00 | 79 | 1020.7 |
| 20260830232507 | 70 | 279 | 0.0 | 0.0 | 0.00 | 0.00 | 0.00 | 79 | 1020.7 |
| 20260830232006 | 70 | 279 | 0.0 | 0.0 | 0.00 | 0.00 | 0.00 | 79 | 1020.7 |
| 20260830231511 | 70 | 279 | 0.0 | 1.0 | 0.00 | 0.00 | 0.00 | 79 | 1020.8 |
| 20260830231019 | 70 | 279 | 0.0 | 2.0 | 0.00 | 0.00 | 0.00 | 79 | 1020.8 |
| 20260830230519 | 70 | 285 | 0.0 | 2.0 | 0.00 | 0.00 | 0.00 | 79 | 1020.7 |
| 20260830230007 | 70 | 266 | 0.0 | 1.0 | 0.00 | 0.00 | 0.00 | 79 | 1020.6 |
| 20260830225506 | 70 | 286 | 0.0 | 3.0 | 0.00 | 0.00 | 0.00 | 79 | 1020.6 |
| 20260830225314 | 70 | 286 | 0.0 | 3.0 | 0.00 | 0.00 | 0.00 | 79 | 1020.6 |
| 20260830224506 | 70 | 285 | 0.0 | 1.0 | 0.00 | 0.00 | 0.00 | 78 | 1020.6 |
| 20260830224005 | 70 | 286 | 0.0 | 1.0 | 0.00 | 0.00 | 0.00 | 78 | 1020.6 |
| 20260830223509 | 70 | 286 | 0.0 | 1.0 | 0.00 | 0.00 | 0.00 | 78 | 1020.5 |
| 20260830223317 | 70 | 266 | 0.0 | 1.0 | 0.00 | 0.00 | 0.00 | 78 | 1020.5 |
| 20260830222505 | 70 | 266 | 0.0 | 1.0 | 0.00 | 0.00 | 0.00 | 78 | 1020.5 |
| 20260830222006 | 71 | 248 | 0.0 | 1.0 | 0.00 | 0.00 | 0.00 | 78 | 1020.5 |
| 20260830221506 | 71 | 247 | 0.0 | 3.0 | 0.00 | 0.00 | 0.00 | 78 | 1020.3 |
| 20260830221006 | 71 | 271 | 0.0 | 3.0 | 0.00 | 0.00 | 0.00 | 78 | 1020.2 |
| 20260830220506 | 71 | 290 | 0.0 | 3.0 | 0.00 | 0.00 | 0.00 | 77 | 1020.2 |
| 20260830220005 | 71 | 285 | 1.0 | 2.0 | 0.00 | 0.00 | 0.00 | 77 | 1020.0 |
| 20260830215506 | 71 | 296 | 0.0 | 2.0 | 0.00 | 0.00 | 0.00 | 77 | 1020.0 |
| 20260830215005 | 71 | 281 | 0.0 | 4.0 | 0.00 | 0.00 | 0.00 | 77 | 1019.9 |
| 20260830214505 | 71 | 312 | 1.0 | 4.0 | 0.00 | 0.00 | 0.00 | 77 | 1019.9 |
| 20260830214004 | 71 | 283 | 0.0 | 9.0 | 0.00 | 0.00 | 0.00 | 77 | 1019.8 |
| 20260830213505 | 71 | 296 | 2.0 | 9.0 | 0.00 | 0.00 | 0.00 | 77 | 1019.8 |
| 20260830213006 | 71 | 323 | 1.0 | 9.0 | 0.00 | 0.00 | 0.00 | 76 | 1019.7 |
| 20260830212502 | 71 | 314 | 2.0 | 9.0 | 0.00 | 0.00 | 0.00 | 76 | 1019.6 |
| 20260830212003 | 71 | 281 | 1.0 | 6.0 | 0.00 | 0.00 | 0.00 | 76 | 1019.6 |
| 20260830211503 | 72 | 276 | 1.0 | 5.0 | 0.00 | 0.00 | 0.00 | 76 | 1019.5 |
| 20260830211006 | 72 | 266 | 0.0 | 7.0 | 0.00 | 0.00 | 0.00 | 76 | 1019.4 |
| 20260830210503 | 72 | 265 | 2.0 | 7.0 | 0.00 | 0.00 | 0.00 | 76 | 1019.3 |
| 20260830210004 | 72 | 274 | 2.0 | 4.0 | 0.00 | 0.00 | 0.00 | 76 | 1019.2 |
| 20260830205502 | 72 | 312 | 1.0 | 5.0 | 0.00 | 0.00 | 0.00 | 76 | 1019.0 |
| 20260830205003 | 72 | 305 | 1.0 | 7.0 | 0.00 | 0.00 | 0.00 | 75 | 1019.0 |
| 20260830204504 | 73 | 286 | 1.0 | 7.0 | 0.00 | 0.00 | 0.00 | 75 | 1018.9 |
| 20260830204001 | 73 | 265 | 2.0 | 6.0 | 0.00 | 0.00 | 0.00 | 75 | 1018.9 |
| 20260830203503 | 73 | 329 | 1.0 | 4.0 | 0.00 | 0.00 | 0.00 | 75 | 1018.8 |
| 20260830203004 | 73 | 45 | 0.0 | 12.0 | 0.00 | 0.00 | 0.00 | 75 | 1018.6 |
| 20260830202817 | 73 | 281 | 2.0 | 12.0 | 0.00 | 0.00 | 0.00 | 74 | 1018.6 |
| 20260830202307 | 74 | 326 | 2.0 | 13.0 | 0.00 | 0.00 | 0.00 | 74 | 1018.5 |
| 20260830201501 | 74 | 111 | 2.0 | 13.0 | 0.00 | 0.00 | 0.00 | 73 | 1018.4 |
| 20260830201003 | 74 | 75 | 2.0 | 6.0 | 0.00 | 0.00 | 0.00 | 73 | 1018.2 |
| 20260830200500 | 75 | 259 | 0.0 | 6.0 | 0.00 | 0.00 | 0.00 | 73 | 1018.2 |
| 20260830200001 | 75 | 314 | 1.0 | 6.0 | 0.00 | 0.00 | 0.00 | 73 | 1018.1 |
| 20260830195500 | 75 | 305 | 3.0 | 13.0 | 0.00 | 0.00 | 0.00 | 72 | 1017.9 |
| 20260830195015 | 75 | 293 | 3.0 | 13.0 | 0.00 | 0.00 | 0.00 | 72 | 1017.9 |
| 20260830194504 | 76 | 292 | 2.0 | 10.0 | 0.00 | 0.00 | 0.00 | 71 | 1017.8 |
| 20260830194003 | 76 | 276 | 1.0 | 7.0 | 0.00 | 0.00 | 0.00 | 70 | 1017.8 |
| 20260830193502 | 77 | 288 | 1.0 | 12.0 | 0.00 | 0.00 | 0.00 | 69 | 1017.6 |
| 20260830193002 | 77 | 279 | 4.0 | 12.0 | 0.00 | 0.00 | 0.00 | 67 | 1017.4 |
| 20260830192503 | 78 | 286 | 2.0 | 10.0 | 0.00 | 0.00 | 0.00 | 64 | 1017.2 |
| 20260830192001 | 78 | 303 | 2.0 | 5.0 | 0.00 | 0.00 | 0.00 | 60 | 1017.0 |
| 20260830191810 | 78 | 312 | 1.0 | 4.0 | 0.00 | 0.00 | 0.00 | 60 | 1016.9 |
| 20260830191331 | 79 | 279 | 1.0 | 4.0 | 0.00 | 0.00 | 0.00 | 59 | 1016.7 |
| 20260830190810 | 79 | 295 | 2.0 | 4.0 | 0.00 | 0.00 | 0.00 | 59 | 1016.6 |
| 20260830190003 | 79 | 269 | 1.0 | 4.0 | 0.00 | 0.00 | 0.00 | 58 | 1016.4 |
| 20260830185501 | 79 | 290 | 1.0 | 4.0 | 0.00 | 0.00 | 0.00 | 58 | 1016.4 |
| 20260830185001 | 79 | 309 | 1.0 | 4.0 | 0.00 | 0.00 | 0.00 | 57 | 1016.2 |
| 20260830184812 | 80 | 275 | 1.0 | 5.0 | 0.00 | 0.00 | 0.00 | 57 | 1016.2 |
| 20260830184001 | 80 | 295 | 1.0 | 5.0 | 0.00 | 0.00 | 0.00 | 57 | 1016.0 |
| 20260830183813 | 80 | 268 | 2.0 | 6.0 | 0.00 | 0.00 | 0.00 | 56 | 1016.0 |
| 20260830183001 | 80 | 323 | 3.0 | 10.0 | 0.00 | 0.00 | 0.00 | 56 | 1016.0 |
| 20260830182459 | 80 | 51 | 2.0 | 10.0 | 0.00 | 0.00 | 0.00 | 55 | 1015.7 |
| 20260830182005 | 80 | 295 | 4.0 | 9.0 | 0.00 | 0.00 | 0.00 | 55 | 1015.8 |
| 20260830181502 | 81 | 316 | 3.0 | 7.0 | 0.00 | 0.00 | 0.00 | 54 | 1015.7 |
| 20260830180959 | 81 | 285 | 2.0 | 6.0 | 0.00 | 0.00 | 0.00 | 54 | 1015.6 |
| 20260830180500 | 82 | 286 | 1.0 | 6.0 | 0.00 | 0.00 | 0.00 | 53 | 1015.6 |
| 20260830180000 | 82 | 302 | 2.0 | 6.0 | 0.00 | 0.00 | 0.00 | 52 | 1015.4 |
| 20260830175503 | 83 | 316 | 2.0 | 6.0 | 0.00 | 0.00 | 0.00 | 51 | 1015.3 |
| 20260830175000 | 83 | 293 | 2.0 | 5.0 | 0.00 | 0.00 | 0.00 | 49 | 1015.2 |
| 20260830174501 | 83 | 312 | 2.0 | 10.0 | 0.00 | 0.00 | 0.00 | 48 | 1015.1 |
| 20260830174000 | 84 | 276 | 3.0 | 10.0 | 0.00 | 0.00 | 0.00 | 47 | 1015.1 |
| 20260830173502 | 84 | 279 | 2.0 | 6.0 | 0.00 | 0.00 | 0.00 | 47 | 1015.1 |
| 20260830172959 | 84 | 298 | 1.0 | 5.0 | 0.00 | 0.00 | 0.00 | 46 | 1014.9 |
| 20260830172501 | 85 | 309 | 1.0 | 5.0 | 0.00 | 0.00 | 0.00 | 46 | 1014.9 |
| 20260830172000 | 85 | 278 | 2.0 | 9.0 | 0.00 | 0.00 | 0.00 | 45 | 1014.8 |
| 20260830171459 | 85 | 310 | 0.0 | 9.0 | 0.00 | 0.00 | 0.00 | 46 | 1014.7 |
| 20260830171305 | 85 | 276 | 1.0 | 5.0 | 0.00 | 0.00 | 0.00 | 46 | 1014.7 |
| 20260830170459 | 85 | 299 | 2.0 | 7.0 | 0.00 | 0.00 | 0.00 | 46 | 1014.6 |
| 20260830165959 | 86 | 282 | 0.0 | 7.0 | 0.00 | 0.00 | 0.00 | 46 | 1014.6 |
| 20260830165458 | 86 | 314 | 3.0 | 5.0 | 0.00 | 0.00 | 0.00 | 43 | 1014.6 |
| 20260830164957 | 86 | 293 | 1.0 | 3.0 | 0.00 | 0.00 | 0.00 | 43 | 1014.4 |
| 20260830164459 | 86 | 307 | 0.0 | 6.0 | 0.00 | 0.00 | 0.00 | 43 | 1014.4 |
| 20260830163957 | 86 | 258 | 1.0 | 6.0 | 0.00 | 0.00 | 0.00 | 43 | 1014.4 |
| 20260830163457 | 86 | 296 | 1.0 | 5.0 | 0.00 | 0.00 | 0.00 | 44 | 1014.4 |
| 20260830162958 | 86 | 290 | 1.0 | 7.0 | 0.00 | 0.00 | 0.00 | 43 | 1014.3 |
| 20260830162458 | 87 | 275 | 3.0 | 7.0 | 0.00 | 0.00 | 0.00 | 43 | 1014.3 |
| 20260830161957 | 87 | 306 | 3.0 | 6.0 | 0.00 | 0.00 | 0.00 | 43 | 1014.2 |
| 20260830161809 | 87 | 295 | 1.0 | 5.0 | 0.00 | 0.00 | 0.00 | 43 | 1014.3 |
| 20260830160958 | 87 | 300 | 2.0 | 5.0 | 0.00 | 0.00 | 0.00 | 43 | 1014.3 |
| 20260830160457 | 87 | 59 | 0.0 | 2.0 | 0.00 | 0.00 | 0.00 | 41 | 1014.3 |
| 20260830155957 | 87 | 82 | 0.0 | 4.0 | 0.00 | 0.00 | 0.00 | 42 | 1014.2 |
| 20260830155805 | 87 | 288 | 0.0 | 4.0 | 0.00 | 0.00 | 0.00 | 42 | 1014.2 |
| 20260830154957 | 87 | 275 | 0.0 | 4.0 | 0.00 | 0.00 | 0.00 | 42 | 1014.1 |
| 20260830154933 | 88 | 28 | 0.0 | 3.0 | 0.00 | 0.00 | 0.00 | 42 | 1014.2 |
| 20260830154927 | 87 | 262 | 0.0 | 1.0 | 0.00 | 0.00 | 0.00 | 41 | 1014.1 |
| 20260830153457 | 88 | 118 | 1.0 | 3.0 | 0.00 | 0.00 | 0.00 | 40 | 1014.2 |
| 20260830152958 | 88 | 86 | 0.0 | 3.0 | 0.00 | 0.00 | 0.00 | 40 | 1014.2 |
| 20260830152457 | 88 | 316 | 1.0 | 5.0 | 0.00 | 0.00 | 0.00 | 41 | 1014.0 |
| 20260830152009 | 89 | 72 | 0.0 | 5.0 | 0.00 | 0.00 | 0.00 | 39 | 1014.2 |
| 20260830151456 | 89 | 117 | 0.0 | 4.0 | 0.00 | 0.00 | 0.00 | 40 | 1014.1 |
| 20260830150956 | 88 | 94 | 0.0 | 4.0 | 0.00 | 0.00 | 0.00 | 41 | 1014.1 |
| 20260830150456 | 88 | 100 | 2.0 | 4.0 | 0.00 | 0.00 | 0.00 | 40 | 1014.1 |
| 20260830145955 | 89 | 110 | 2.0 | 4.0 | 0.00 | 0.00 | 0.00 | 41 | 1014.2 |
| 20260830145807 | 89 | 69 | 0.0 | 2.0 | 0.00 | 0.00 | 0.00 | 39 | 1014.2 |
| 20260830144954 | 89 | 86 | 0.0 | 5.0 | 0.00 | 0.00 | 0.00 | 41 | 1014.1 |
| 20260830144456 | 89 | 85 | 1.0 | 5.0 | 0.00 | 0.00 | 0.00 | 40 | 1014.2 |
| 20260830144307 | 89 | 131 | 2.0 | 5.0 | 0.00 | 0.00 | 0.00 | 40 | 1014.2 |
| 20260830143455 | 88 | 310 | 0.0 | 3.0 | 0.00 | 0.00 | 0.00 | 44 | 1014.2 |
| 20260830142955 | 88 | 310 | 2.0 | 3.0 | 0.00 | 0.00 | 0.00 | 41 | 1014.3 |
| 20260830142454 | 89 | 37 | 0.0 | 4.0 | 0.00 | 0.00 | 0.00 | 43 | 1014.3 |
| 20260830141954 | 88 | 44 | 1.0 | 5.0 | 0.00 | 0.00 | 0.00 | 42 | 1014.3 |
| 20260830141454 | 89 | 96 | 2.0 | 5.0 | 0.00 | 0.00 | 0.00 | 41 | 1014.3 |
| 20260830140955 | 89 | 109 | 0.0 | 2.0 | 0.00 | 0.00 | 0.00 | 42 | 1014.4 |
| 20260830140808 | 89 | 56 | 0.0 | 0.0 | 0.00 | 0.00 | 0.00 | 43 | 1014.4 |
| 20260830135956 | 89 | 56 | 0.0 | 3.0 | 0.00 | 0.00 | 0.00 | 44 | 1014.5 |
| 20260830135454 | 88 | 16 | 0.0 | 3.0 | 0.00 | 0.00 | 0.00 | 44 | 1014.6 |
| 20260830134954 | 88 | 323 | 1.0 | 3.0 | 0.00 | 0.00 | 0.00 | 44 | 1014.6 |
| 20260830134454 | 87 | 82 | 0.0 | 6.0 | 0.00 | 0.00 | 0.00 | 46 | 1014.6 |
| 20260830134301 | 87 | 127 | 0.0 | 6.0 | 0.00 | 0.00 | 0.00 | 45 | 1014.6 |
| 20260830133454 | 87 | 106 | 3.0 | 6.0 | 0.00 | 0.00 | 0.00 | 45 | 1014.6 |
| 20260830132953 | 87 | 82 | 0.0 | 1.0 | 0.00 | 0.00 | 0.00 | 46 | 1014.6 |
| 20260830132455 | 86 | 138 | 0.0 | 3.0 | 0.00 | 0.00 | 0.00 | 48 | 1014.7 |
| 20260830132007 | 86 | 278 | 0.0 | 6.0 | 0.00 | 0.00 | 0.00 | 49 | 1014.7 |
| 20260830131454 | 85 | 100 | 3.0 | 6.0 | 0.00 | 0.00 | 0.00 | 49 | 1014.7 |
| 20260830130953 | 85 | 97 | 4.0 | 7.0 | 0.00 | 0.00 | 0.00 | 48 | 1014.8 |
| 20260830130454 | 85 | 62 | 2.0 | 7.0 | 0.00 | 0.00 | 0.00 | 49 | 1014.8 |
| 20260830130303 | 85 | 92 | 3.0 | 7.0 | 0.00 | 0.00 | 0.00 | 48 | 1014.9 |
| 20260830125454 | 85 | 80 | 1.0 | 7.0 | 0.00 | 0.00 | 0.00 | 50 | 1014.8 |
| 20260830124953 | 84 | 133 | 4.0 | 7.0 | 0.00 | 0.00 | 0.00 | 51 | 1014.9 |
| 20260830124453 | 84 | 103 | 4.0 | 6.0 | 0.00 | 0.00 | 0.00 | 51 | 1014.9 |
| 20260830123954 | 84 | 109 | 4.0 | 10.0 | 0.00 | 0.00 | 0.00 | 51 | 1015.0 |
| 20260830123452 | 84 | 65 | 3.0 | 10.0 | 0.00 | 0.00 | 0.00 | 51 | 1015.0 |
| 20260830122954 | 84 | 96 | 1.0 | 7.0 | 0.00 | 0.00 | 0.00 | 53 | 1015.0 |
| 20260830122454 | 83 | 86 | 4.0 | 10.0 | 0.00 | 0.00 | 0.00 | 52 | 1015.2 |
| 20260830121951 | 83 | 100 | 3.0 | 10.0 | 0.00 | 0.00 | 0.00 | 53 | 1015.3 |
| 20260830121454 | 83 | 135 | 2.0 | 10.0 | 0.00 | 0.00 | 0.00 | 54 | 1015.3 |
| 20260830120951 | 83 | 94 | 5.0 | 10.0 | 0.00 | 0.00 | 0.00 | 53 | 1015.4 |
| 20260830120505 | 83 | 75 | 2.0 | 7.0 | 0.00 | 0.00 | 0.00 | 54 | 1015.4 |
| 20260830115951 | 82 | 97 | 4.0 | 7.0 | 0.00 | 0.00 | 0.00 | 55 | 1015.5 |
| 20260830115454 | 82 | 86 | 2.0 | 7.0 | 0.00 | 0.00 | 0.00 | 55 | 1015.4 |
| 20260830114951 | 82 | 83 | 4.0 | 7.0 | 0.00 | 0.00 | 0.00 | 54 | 1015.5 |
| 20260830114451 | 82 | 109 | 1.0 | 11.0 | 0.00 | 0.00 | 0.00 | 55 | 1015.5 |
| 20260830113952 | 82 | 137 | 4.0 | 11.0 | 0.00 | 0.00 | 0.00 | 55 | 1015.5 |
| 20260830113455 | 81 | 89 | 2.0 | 10.0 | 0.00 | 0.00 | 0.00 | 56 | 1015.6 |
| 20260830112953 | 81 | 66 | 1.0 | 10.0 | 0.00 | 0.00 | 0.00 | 57 | 1015.7 |
| 20260830112450 | 80 | 78 | 5.0 | 9.0 | 0.00 | 0.00 | 0.00 | 57 | 1015.8 |
| 20260830112258 | 80 | 96 | 4.0 | 9.0 | 0.00 | 0.00 | 0.00 | 57 | 1016.0 |
| 20260830111451 | 80 | 89 | 5.0 | 9.0 | 0.00 | 0.00 | 0.00 | 56 | 1016.1 |
| 20260830110952 | 80 | 104 | 2.0 | 9.0 | 0.00 | 0.00 | 0.00 | 58 | 1016.1 |
| 20260830110758 | 80 | 92 | 4.0 | 10.0 | 0.00 | 0.00 | 0.00 | 59 | 1016.1 |
| 20260830110305 | 80 | 127 | 6.0 | 10.0 | 0.00 | 0.00 | 0.00 | 57 | 1016.1 |
| 20260830105926 | 80 | 85 | 1.0 | 7.0 | 0.00 | 0.00 | 0.00 | 60 | 1016.3 |
| 20260830105919 | 80 | 125 | 4.0 | 7.0 | 0.00 | 0.00 | 0.00 | 58 | 1016.3 |
| 20260830104453 | 79 | 75 | 1.0 | 7.0 | 0.00 | 0.00 | 0.00 | 61 | 1016.4 |
| 20260830103949 | 79 | 93 | 3.0 | 11.0 | 0.00 | 0.00 | 0.00 | 61 | 1016.5 |
| 20260830103452 | 78 | 111 | 3.0 | 11.0 | 0.00 | 0.00 | 0.00 | 61 | 1016.5 |
| 20260830102950 | 78 | 113 | 4.0 | 7.0 | 0.00 | 0.00 | 0.00 | 63 | 1016.6 |
| 20260830102451 | 78 | 99 | 2.0 | 7.0 | 0.00 | 0.00 | 0.00 | 62 | 1016.8 |
| 20260830101948 | 77 | 86 | 1.0 | 7.0 | 0.00 | 0.00 | 0.00 | 64 | 1016.8 |
| 20260830101447 | 78 | 103 | 2.0 | 7.0 | 0.00 | 0.00 | 0.00 | 63 | 1016.9 |
| 20260830100949 | 77 | 97 | 2.0 | 7.0 | 0.00 | 0.00 | 0.00 | 65 | 1016.9 |
| 20260830100446 | 76 | 121 | 2.0 | 10.0 | 0.00 | 0.00 | 0.00 | 66 | 1017.0 |
| 20260830095948 | 76 | 96 | 6.0 | 10.0 | 0.00 | 0.00 | 0.00 | 66 | 1017.0 |
| 20260830095753 | 76 | 94 | 3.0 | 9.0 | 0.00 | 0.00 | 0.00 | 65 | 1017.1 |
| 20260830094947 | 77 | 83 | 5.0 | 9.0 | 0.00 | 0.00 | 0.00 | 64 | 1017.2 |
| 20260830094446 | 77 | 96 | 0.0 | 4.0 | 0.00 | 0.00 | 0.00 | 66 | 1017.2 |
| 20260830094302 | 76 | 107 | 2.0 | 6.0 | 0.00 | 0.00 | 0.00 | 69 | 1017.2 |
| 20260830093448 | 75 | 92 | 4.0 | 6.0 | 0.00 | 0.00 | 0.00 | 68 | 1017.3 |
| 20260830092948 | 74 | 109 | 3.0 | 6.0 | 0.00 | 0.00 | 0.00 | 68 | 1017.3 |
| 20260830092448 | 75 | 111 | 2.0 | 6.0 | 0.00 | 0.00 | 0.00 | 66 | 1017.4 |
| 20260830091947 | 76 | 83 | 2.0 | 4.0 | 0.00 | 0.00 | 0.00 | 68 | 1017.4 |
| 20260830091449 | 75 | 104 | 2.0 | 4.0 | 0.00 | 0.00 | 0.00 | 69 | 1017.4 |
| 20260830090947 | 74 | 102 | 2.0 | 9.0 | 0.00 | 0.00 | 0.00 | 70 | 1017.6 |
| 20260830090449 | 74 | 72 | 4.0 | 9.0 | 0.00 | 0.00 | 0.00 | 71 | 1017.6 |
| 20260830085949 | 73 | 75 | 1.0 | 7.0 | 0.00 | 0.00 | 0.00 | 72 | 1017.5 |
| 20260830085448 | 73 | 120 | 3.0 | 7.0 | 0.00 | 0.00 | 0.00 | 71 | 1017.5 |
| 20260830084947 | 74 | 121 | 3.0 | 6.0 | 0.00 | 0.00 | 0.00 | 70 | 1017.6 |
| 20260830084447 | 74 | 87 | 2.0 | 4.0 | 0.00 | 0.00 | 0.00 | 69 | 1017.6 |
| 20260830083947 | 75 | 83 | 0.0 | 2.0 | 0.00 | 0.00 | 0.00 | 70 | 1017.7 |
| 20260830083446 | 74 | 111 | 0.0 | 4.0 | 0.00 | 0.00 | 0.00 | 72 | 1017.7 |
| 20260830082948 | 73 | 110 | 1.0 | 5.0 | 0.00 | 0.00 | 0.00 | 73 | 1017.8 |
| 20260830082447 | 73 | 89 | 2.0 | 5.0 | 0.00 | 0.00 | 0.00 | 73 | 1017.8 |
| 20260830081948 | 73 | 79 | 0.0 | 4.0 | 0.00 | 0.00 | 0.00 | 74 | 1017.7 |
| 20260830081500 | 72 | 93 | 1.0 | 4.0 | 0.00 | 0.00 | 0.00 | 74 | 1017.9 |
| 20260830080947 | 72 | 89 | 1.0 | 4.0 | 0.00 | 0.00 | 0.00 | 75 | 1017.8 |
| 20260830080447 | 72 | 76 | 1.0 | 5.0 | 0.00 | 0.00 | 0.00 | 75 | 1017.8 |
| 20260830075946 | 71 | 61 | 1.0 | 5.0 | 0.00 | 0.00 | 0.00 | 76 | 1017.8 |
| 20260830075446 | 72 | 90 | 3.0 | 4.0 | 0.00 | 0.00 | 0.00 | 74 | 1017.9 |
| 20260830074947 | 72 | 109 | 2.0 | 3.0 | 0.00 | 0.00 | 0.00 | 74 | 1017.9 |
| 20260830074447 | 72 | 78 | 0.0 | 2.0 | 0.00 | 0.00 | 0.00 | 75 | 1017.9 |
| 20260830073945 | 71 | 86 | 0.0 | 3.0 | 0.00 | 0.00 | 0.00 | 77 | 1017.9 |
| 20260830073447 | 70 | 117 | 1.0 | 3.0 | 0.00 | 0.00 | 0.00 | 78 | 1018.0 |
| 20260830072945 | 69 | 85 | 1.0 | 2.0 | 0.00 | 0.00 | 0.00 | 80 | 1017.9 |
| 20260830072754 | 69 | 282 | 1.0 | 2.0 | 0.00 | 0.00 | 0.00 | 78 | 1018.0 |
| 20260830071957 | 69 | 355 | 1.0 | 1.0 | 0.00 | 0.00 | 0.00 | 78 | 1018.1 |
| 20260830071446 | 69 | 92 | 0.0 | 2.0 | 0.00 | 0.00 | 0.00 | 80 | 1018.2 |
| 20260830070945 | 68 | 92 | 0.0 | 2.0 | 0.00 | 0.00 | 0.00 | 81 | 1018.2 |
| 20260830070445 | 67 | 90 | 1.0 | 2.0 | 0.00 | 0.00 | 0.00 | 80 | 1018.1 |
| 20260830065945 | 67 | 87 | 0.0 | 2.0 | 0.00 | 0.00 | 0.00 | 82 | 1018.1 |
| 20260830065759 | 66 | 96 | 0.0 | 2.0 | 0.00 | 0.00 | 0.00 | 82 | 1018.1 |
| 20260830065252 | 66 | 207 | 0.0 | 0.0 | 0.00 | 0.00 | 0.00 | 85 | 1018.2 |
| 20260830064444 | 65 | 212 | 0.0 | 0.0 | 0.00 | 0.00 | 0.00 | 88 | 1018.2 |
| 20260830063943 | 65 | 212 | 0.0 | 0.0 | 0.00 | 0.00 | 0.00 | 90 | 1018.1 |
| 20260830063446 | 64 | 212 | 0.0 | 0.0 | 0.00 | 0.00 | 0.00 | 92 | 1018.1 |
| 20260830062943 | 62 | 212 | 0.0 | 0.0 | 0.00 | 0.00 | 0.00 | 91 | 1018.1 |
| 20260830062444 | 62 | 212 | 0.0 | 0.0 | 0.00 | 0.00 | 0.00 | 91 | 1018.1 |
| 20260830061943 | 62 | 212 | 0.0 | 0.0 | 0.00 | 0.00 | 0.00 | 91 | 1018.0 |
| 20260830061809 | 61 | 216 | 0.0 | 0.0 | 0.00 | 0.00 | 0.00 | 91 | 1018.1 |